Regional Weather Roundup
Issued by NWS

Home | Current Version | Previous Version | Graphics & Text | Print | Product List | Glossary On
Versions: 1 2 3 4 5 6 7 8 9 10 11 12 13 14 15 16 17 18 19 20 21 22 23 24 25 26 27 28 29 30 31 32 33 34 35 36 37 38 39 40 41 42 43 44 45 46 47 48 49 50
000
ASUS43 KMKX 210500
RWRWI

WISCONSIN REGIONAL WEATHER ROUNDUP
NATIONAL WEATHER SERVICE MILWAUKEE/SULLIVAN WI
1200 AM CDT THU AUG 21 2014

NOTE: "FAIR" INDICATES FEW OR NO CLOUDS BELOW 12,000 FEET WITH NO
SIGNIFICANT WEATHER AND/OR OBSTRUCTIONS TO VISIBILITY.

WIZ001-002-006>008-014>016-023>028-210600-
NORTHWEST WISCONSIN

CITY           SKY/WX    TMP DP  RH WIND       PRES   REMARKS
SUPERIOR ARPT  CLOUDY    62  61  97 NE3       29.94S
ASHLAND        CLOUDY    60  58  92 CALM      29.96S
HAYWARD        CLEAR     56  56 100 CALM      29.95F FOG
SIREN          PTCLDY    65  62  90 E5        29.92F
RICE LAKE      PTCLDY    64  61  89 E6        29.94F
LADYSMITH      PTCLDY    62  60  94 E5        29.97S
EAU CLAIRE     NOT AVBL
MENOMONIE      MOCLDY    67  64  88 CALM      29.91S
NEW RICHMOND   PTCLDY    67  63  85 E6        29.90F
OSCEOLA        MOCLDY    68  64  86 E7        29.92F
$$

WIZ003>005-009-010-017-018-210600-
NORTH CENTRAL WISCONSIN

CITY           SKY/WX    TMP DP  RH WIND       PRES   REMARKS
WOODRUFF       CLOUDY    64  59  86 CALM      29.98S
RHINELANDER    CLOUDY    61  60  97 CALM      29.99S
EAGLE RIVER    CLOUDY    62  61  95 CALM      29.98R
LAND O LAKES   CLOUDY    62  61  96 CALM      29.99S
PHILLIPS       PTCLDY    56  56 100 CALM      29.97S
TOMAHAWK       CLOUDY    55  55  97 CALM      29.98S FOG
MEDFORD        MOCLDY    59  59 100 E6        29.96S
MERRILL        CLOUDY    58  58 100 NE3       29.97S FOG
$$

WIZ029-030-035-036-043>047-210600-
CENTRAL WISCONSIN

CITY           SKY/WX    TMP DP  RH WIND       PRES   REMARKS
WAUSAU         PTCLDY    62  60  93 CALM      29.95S
MOSINEE        PTCLDY    61  61 100 CALM      29.97S
MARSHFIELD     PTCLDY    64  61  90 E3        29.95S
STEVENS POINT  PTCLDY    59  57  95 CALM      29.96S
WAUPACA        PTCLDY    64  63  95 CALM      29.96R
WAUTOMA        NOT AVBL
WISC RAPIDS    PTCLDY    64  62  93 SE3       29.96S
CAMP DOUGLAS   FOG       63  63 100 E2        29.95R VSB 3/4
$$

WIZ011>013-019>022-031-037>040-048>050-210600-
NORTHEAST WISCONSIN

CITY           SKY/WX    TMP DP  RH WIND       PRES   REMARKS
ANTIGO         MOCLDY    59  59  98 CALM      29.98S
STURGEON BAY   CLOUDY    64  61  88 S7        29.97R
GREEN BAY      PTCLDY    62  61  96 CALM      29.96R
MANITOWOC      NOT AVBL
APPLETON       MOCLDY    66  61  82 E3        29.96R
CLINTONVILLE   PTCLDY    61  59  94 CALM      29.95S FOG
OSHKOSH        PTCLDY    64  63  96 S5        29.96R
$$

WIZ032>034-041-042-053>061-210600-
SOUTHWEST WISCONSIN

CITY           SKY/WX    TMP DP  RH WIND       PRES   REMARKS
LA CROSSE      PTCLDY    73  67  81 E8        29.90R
SPARTA         MOCLDY    69  63  82 E3        29.93S
VIROQUA        FAIR      68  68 100 SE5       29.94S
BOSCOBEL       PTCLDY    68  66  93 CALM      29.92S
PRAIRIE DU CHI MOCLDY    69  66  91 SE5       29.90S
PLATTEVILLE    FAIR      68  66  94 SE5       29.94S
$$

WIZ056-057-062-063-064-067-068-210600-
SOUTH CENTRAL WISCONSIN

CITY           SKY/WX    TMP DP  RH WIND       PRES   REMARKS
BARABOO/DELLS  MOCLDY    69  64  83 CALM      29.95R
LONE ROCK      NOT AVBL
WATERTOWN      PTCLDY    66  65  95 E5        29.94S
MADISON        MOCLDY    71  67  87 NE3       29.94R
MIDDLETON      FAIR      72  69  92 W3        29.95R
MONROE         PTCLDY    70  66  88 SW3       29.95S
JANESVILLE     MOCLDY    72  68  88 CALM      29.94S
$$

WIZ051-052-058>065-066-070>072-210600-
SOUTHEAST WISCONSIN

CITY           SKY/WX    TMP DP  RH WIND       PRES   REMARKS
MILWAUKEE      MOCLDY    68  64  87 E5        29.96R
WAUKESHA       MOCLDY    64  63  94 E6        29.98R
MILWAUKEE/TIMM MOCLDY    68  61  77 SE3       29.97R
RACINE         PTCLDY    69  64  84 E6        29.98R
BURLINGTON     PTCLDY    66  65  97 CALM      29.96S
KENOSHA        PTCLDY    69  64  84 E6        29.96R
FOND DU LAC    PTCLDY    65  62  90 S6        29.97R
SHEBOYGAN      MOCLDY    62  60  93 CALM      29.97R FOG
WEST BEND      MOCLDY    63  61  94 CALM      29.97R
JUNEAU         PTCLDY    66  38  36 E7        29.96S
$$

LSZ147-162-210600-
LAKE SUPERIOR

STATION/POSITION TIME  TEMP    WIND        PRES    WAVE
                       AIR SEA DIR/SP/G            HT/PER
                 (UTC) (F)     (DEG/KT/KT) (MB)    (FT/S)
W MID LAKE BUOY  0350   59 59   50/  2/  2 1014.6S   0
DEVILS ISLAND    0400   61      90/ 10/ 10 1014.1F
PORT WING        0440   63      CALM  /  1 1014.2R
SAXON HARBOR     0440   60        CALM     1014.2R
$$

LMZ867-665-643>646-210600-
LAKE MICHIGAN

STATION/POSITION TIME  TEMP    WIND        PRES    WAVE
                       AIR SEA DIR/SP/G            HT/PER
                 (UTC) (F)     (DEG/KT/KT) (MB)    (FT/S)
N MID LAKE BUOY  0350   62 62   40/  4/  4 1013.5R   0
NORTHPORT PIER   0400   63     210/  3/  5 1014.2R
SISTER BAY       0426   64     150/  1/  4   N/A
ALGOMA LAKESHORE 0353             CALM       N/A
KEWAUNEE LAKESHO 0400   64      CALM  /  1 1013.2R
SHEBOYGAN LAKESH 0400   67 64  100/  2/  3 1014.5R
ATWATER BUOY     0400   69      80/  8/ 10 1015.2R
MILWAUKEE LAKESH 0400   69      70/  3/  4   N/A
S MID LAKE BUOY  0350   68 68   90/  6/  6 1014.0R   0
KENOSHA   LAKESH 0400   71      90/  2/  4 1013.9R
$$

TC  - TEMPERATURE IN CELSIUS
VSB - VISIBILITY IN STATUTE MILES
WCI - WIND CHILL INDEX
HX  - HEAT INDEX



USA.gov is the U.S. government's official web portal to all federal, state and local government web resources and services.